CW6538 Cattolica IT current weather conditions

sailwx.info

Wind from 020 at 6 knots gusting 8

Air temperature 25.6° C
Dewpoint 15.6° C

Last reported at 2015-Jun-30 07:49 UTC.
Time now 2015-Jun-30 08:22 UTC

Location: N 43°58' E 012°44'.
View on Google Maps.

See reports from other nearby stations

  
Tides and Currents Weather Stations Pressure Air Temp Water Temp Dewpoint Dewpoint Depression Visibility Wind Speed Wind Dir Waves Ship Positions
date/time (UTC)wind fromknots sea level pressurealtimeterstation pressurevisibilityair tempwater tempwave heightnotes
2015-Jun-30 07:49 020 6 gusting 8 25.6
2015-Jun-30 07:44 055 4 gusting 7 26.1
2015-Jun-30 07:39 044 3 gusting 6 26.1
2015-Jun-30 07:34 059 4 gusting 6 26.1
2015-Jun-30 07:29 137 2 gusting 7 26.1
2015-Jun-30 07:24 025 4 gusting 7 25.6
2015-Jun-30 07:19 009 4 gusting 6 25.6
2015-Jun-30 07:14 023 3 gusting 6 25.0
2015-Jun-30 07:09 067 0 gusting 5 25.0
2015-Jun-30 07:04 069 2 gusting 4 25.0
2015-Jun-30 06:59 040 2 gusting 4 24.4
2015-Jun-30 06:54 098 1 gusting 4 24.4
2015-Jun-30 06:49 168 23.9
2015-Jun-30 06:44 167 23.9
2015-Jun-30 06:39 168 0 gusting 3 23.3
2015-Jun-30 06:34 168 22.8
2015-Jun-30 06:29 167 22.8
2015-Jun-30 06:24 167 22.2
2015-Jun-30 06:19 167 21.7
2015-Jun-30 06:14 168 21.7
2015-Jun-30 06:09 168 21.1
2015-Jun-30 06:04 168 21.1
2015-Jun-30 05:59 168 20.6
2015-Jun-30 05:54 168 20.6
2015-Jun-30 05:49 168 20.0
2015-Jun-30 05:44 168 20.0
2015-Jun-30 05:39 168 19.4
2015-Jun-30 05:34 168 1 gusting 5 19.4
2015-Jun-30 05:29 169 3 gusting 5 19.4
2015-Jun-30 05:24 178 2 gusting 4 18.9
2015-Jun-30 05:19 184 3 gusting 4 18.9
2015-Jun-30 05:14 184 1 gusting 5 18.9
2015-Jun-30 05:09 179 4 gusting 6 18.9
2015-Jun-30 05:04 172 4 gusting 6 18.3
2015-Jun-30 04:59 177 2 gusting 5 18.3
2015-Jun-30 04:54 187 2 gusting 5 18.3
2015-Jun-30 04:49 210 3 gusting 5 18.3
2015-Jun-30 04:44 175 3 gusting 5 17.8
2015-Jun-30 04:39 178 3 gusting 5 17.8
2015-Jun-30 04:34 186 0 gusting 5 17.8
2015-Jun-30 04:29 186 0 gusting 5 17.2
2015-Jun-30 04:24 186 1 gusting 5 17.2
2015-Jun-30 04:19 181 3 gusting 5 17.2
2015-Jun-30 04:14 184 2 gusting 5 17.2
2015-Jun-30 04:09 174 3 gusting 5 17.2
2015-Jun-30 04:04 166 3 gusting 5 17.2
2015-Jun-30 03:59 169 3 gusting 6 17.2
2015-Jun-30 03:54 161 4 gusting 6 17.2
2015-Jun-30 03:49 178 4 gusting 5 17.2
2015-Jun-30 03:44 171 4 gusting 5 17.2
2015-Jun-30 03:39 174 4 gusting 5 17.2
2015-Jun-30 03:34 175 4 gusting 5 17.2
2015-Jun-30 03:29 167 4 gusting 5 17.2
2015-Jun-30 03:24 158 3 gusting 5 17.2
2015-Jun-30 03:19 174 3 gusting 5 17.2
2015-Jun-30 03:14 153 3 gusting 6 17.2
2015-Jun-30 03:09 159 4 gusting 6 17.2
2015-Jun-30 03:04 166 4 gusting 5 17.2
2015-Jun-30 02:59 182 3 gusting 5 17.2
2015-Jun-30 02:54 172 4 gusting 6 17.2
2015-Jun-30 02:49 169 4 gusting 5 17.2
2015-Jun-30 02:44 164 3 gusting 5 17.2
2015-Jun-30 02:39 168 4 gusting 5 17.8
2015-Jun-30 02:34 175 4 gusting 5 17.8
2015-Jun-30 02:29 178 3 gusting 6 17.8
2015-Jun-30 02:24 184 4 gusting 5 17.8
2015-Jun-30 02:19 155 3 gusting 5 17.8
2015-Jun-30 02:14 174 2 gusting 4 17.8
2015-Jun-30 02:09 174 3 gusting 4 17.8
2015-Jun-30 02:04 174 3 gusting 4 17.8
2015-Jun-30 01:59 182 2 gusting 4 17.8
2015-Jun-30 01:54 174 2 gusting 4 17.8
2015-Jun-30 01:49 174 3 gusting 5 17.8
2015-Jun-30 01:44 175 3 gusting 5 17.8
2015-Jun-30 01:39 175 2 gusting 4 18.3
2015-Jun-30 01:34 175 1 gusting 4 18.3
2015-Jun-30 01:29 175 1 gusting 4 18.3
2015-Jun-30 01:24 175 1 gusting 4 18.3
2015-Jun-30 01:19 175 1 gusting 4 18.3
2015-Jun-30 01:14 175 3 gusting 4 18.3
2015-Jun-30 01:09 175 2 gusting 4 18.3
2015-Jun-30 01:04 177 3 gusting 4 18.9
2015-Jun-30 00:59 169 3 gusting 4 18.9
2015-Jun-30 00:54 162 2 gusting 5 18.9
2015-Jun-30 00:49 166 3 gusting 5 18.9
2015-Jun-30 00:44 164 3 gusting 4 18.9
2015-Jun-30 00:39 164 3 gusting 4 18.9
2015-Jun-30 00:34 159 2 gusting 5 18.9
2015-Jun-30 00:29 159 3 gusting 6 18.9
2015-Jun-30 00:24 149 4 gusting 6 18.9
2015-Jun-30 00:19 167 5 gusting 6 18.9
2015-Jun-30 00:14 169 3 gusting 5 18.9
2015-Jun-30 00:09 175 4 gusting 5 19.4
2015-Jun-30 00:04 179 3 gusting 5 19.4
2015-Jun-29 23:59 165 2 gusting 4 19.4
2015-Jun-29 23:54 166 2 gusting 5 19.4
2015-Jun-29 23:49 161 2 gusting 6 19.4
2015-Jun-29 23:44 150 4 gusting 6 20.0
2015-Jun-29 23:39 164 3 gusting 4 20.0
2015-Jun-29 23:34 167 2 gusting 4 20.0
2015-Jun-29 23:29 178 2 gusting 4 20.0
2015-Jun-29 23:24 169 2 gusting 4 20.0
2015-Jun-29 23:19 158 0 gusting 4 20.0
2015-Jun-29 23:14 149 0 gusting 4 20.6
2015-Jun-29 23:09 150 1 gusting 4 20.6
2015-Jun-29 23:04 150 20.6
2015-Jun-29 22:59 153 1 gusting 4 20.6
2015-Jun-29 22:54 154 2 gusting 5 20.6
2015-Jun-29 22:49 130 2 gusting 5 20.6
2015-Jun-29 22:44 153 1 gusting 3 20.6
2015-Jun-29 22:39 153 0 gusting 2 20.6
2015-Jun-29 22:34 153 1 gusting 2 20.6
2015-Jun-29 22:29 153 20.6
2015-Jun-29 22:24 153 20.6
2015-Jun-29 22:19 153 20.6
2015-Jun-29 22:14 153 0 gusting 3 21.1
2015-Jun-29 22:09 153 0 gusting 1 21.1
2015-Jun-29 22:04 153 21.1
2015-Jun-29 21:59 153 21.1
2015-Jun-29 21:54 153 21.1
2015-Jun-29 21:49 153 21.1
2015-Jun-29 21:44 153 21.1
2015-Jun-29 21:39 153 0 gusting 3 21.1
2015-Jun-29 21:34 153 0 gusting 3 21.1
2015-Jun-29 21:29 160 0 gusting 3 21.1
2015-Jun-29 21:24 153 21.1
2015-Jun-29 21:19 153 3 gusting 4 21.7
2015-Jun-29 21:14 158 3 gusting 4 21.7
2015-Jun-29 21:09 158 1 gusting 4 21.7
2015-Jun-29 21:04 157 1 gusting 4 21.7
2015-Jun-29 20:59 158 22.2
2015-Jun-29 20:54 157 1 gusting 3 22.2
2015-Jun-29 20:49 158 0 gusting 2 22.2
2015-Jun-29 20:44 158 22.2
2015-Jun-29 20:39 158 1 gusting 4 22.2
2015-Jun-29 20:34 158 2 gusting 4 22.2
2015-Jun-29 20:29 155 2 gusting 4 22.8
2015-Jun-29 20:24 155 1 gusting 4 22.8
2015-Jun-29 20:19 156 1 gusting 4 22.8
2015-Jun-29 20:14 166 2 gusting 4 22.8
2015-Jun-29 20:09 179 2 gusting 4 22.8
2015-Jun-29 20:04 161 2 gusting 4 23.3
2015-Jun-29 19:59 166 2 gusting 4 23.3
2015-Jun-29 19:54 150 2 gusting 5 23.3
2015-Jun-29 19:49 150 3 gusting 4 23.3
2015-Jun-29 19:44 150 23.3
2015-Jun-29 19:39 150 1 gusting 4 23.9
2015-Jun-29 19:34 150 1 gusting 3 23.9
2015-Jun-29 19:29 150 23.9
2015-Jun-29 19:24 150 2 gusting 3 23.9
2015-Jun-29 19:19 150 1 gusting 4 23.9
2015-Jun-29 19:14 150 2 gusting 4 24.4
2015-Jun-29 19:09 150 2 gusting 5 24.4
2015-Jun-29 19:04 172 2 gusting 5 24.4
2015-Jun-29 18:59 168 2 gusting 5 25.0
2015-Jun-29 18:54 167 4 gusting 5 25.0
2015-Jun-29 18:49 190 2 gusting 5 25.0
2015-Jun-29 18:44 149 4 gusting 5 25.0
2015-Jun-29 18:39 169 0 gusting 4 25.6
2015-Jun-29 18:34 179 1 gusting 5 25.6
2015-Jun-29 18:29 144 3 gusting 5 25.6
2015-Jun-29 18:24 129 2 gusting 6 25.6
2015-Jun-29 18:19 112 3 gusting 6 25.6
2015-Jun-29 18:14 135 2 gusting 6 26.1
2015-Jun-29 18:09 138 2 gusting 8 26.1
2015-Jun-29 18:04 129 4 gusting 8 26.1
2015-Jun-29 17:59 115 5 gusting 7 26.1
2015-Jun-29 17:54 143 2 gusting 6 26.1
2015-Jun-29 17:49 116 4 gusting 6 26.1
2015-Jun-29 17:44 115 4 gusting 6 26.1
2015-Jun-29 17:39 106 4 gusting 6 26.7
2015-Jun-29 17:34 104 5 gusting 7 26.7
2015-Jun-29 17:29 098 4 gusting 8 26.7
2015-Jun-29 17:24 111 5 gusting 8 26.7
2015-Jun-29 17:19 103 5 gusting 8 26.7
2015-Jun-29 17:14 095 6 gusting 9 26.7
2015-Jun-29 17:09 108 5 gusting 9 26.7
2015-Jun-29 17:04 106 5 gusting 9 27.2
2015-Jun-29 16:59 101 5 gusting 9 27.2
2015-Jun-29 16:54 103 6 gusting 9 27.2
2015-Jun-29 16:49 126 6 gusting 10 27.2
2015-Jun-29 16:44 147 4 gusting 10 27.2
2015-Jun-29 16:39 088 5 gusting 9 26.7
2015-Jun-29 16:34 105 6 gusting 10 26.7
2015-Jun-29 16:29 110 7 gusting 10 27.2
2015-Jun-29 16:24 082 6 gusting 8 27.2
2015-Jun-29 16:19 122 4 gusting 8 27.2
2015-Jun-29 16:14 116 6 gusting 9 27.2
2015-Jun-29 16:09 115 5 gusting 10 27.2
2015-Jun-29 16:04 150 6 gusting 10 27.2
2015-Jun-29 15:59 120 6 gusting 8 27.2
2015-Jun-29 15:54 143 5 gusting 10 27.8
2015-Jun-29 15:49 097 6 gusting 10 27.2
2015-Jun-29 15:39 132 6 gusting 10 27.2
2015-Jun-29 15:34 096 6 gusting 9 27.2
2015-Jun-29 15:29 119 5 gusting 9 27.2
2015-Jun-29 15:24 164 5 gusting 7 27.2
2015-Jun-29 15:19 073 3 gusting 7 27.2
2015-Jun-29 15:14 096 3 gusting 7 27.2
2015-Jun-29 15:09 098 2 gusting 6 26.7
2015-Jun-29 15:04 125 3 gusting 8 26.7
2015-Jun-29 14:59 100 4 gusting 8 26.7
2015-Jun-29 14:54 137 4 gusting 10 26.7
2015-Jun-29 14:49 152 6 gusting 10 26.7
2015-Jun-29 14:44 160 4 gusting 9 26.1
2015-Jun-29 14:39 115 6 gusting 9 26.1
2015-Jun-29 14:34 096 5 gusting 9 26.1
2015-Jun-29 14:29 122 6 gusting 9 26.1
2015-Jun-29 14:24 109 5 gusting 6 26.1
2015-Jun-29 14:19 112 5 gusting 6 26.1
2015-Jun-29 14:14 113 4 gusting 8 25.6
2015-Jun-29 14:09 094 4 gusting 8 25.6
2015-Jun-29 14:04 109 6 gusting 9 25.6
2015-Jun-29 13:54 121 3 gusting 9 26.1
2015-Jun-29 13:44 089 4 gusting 8 25.6
2015-Jun-29 13:39 115 5 gusting 7 25.6
2015-Jun-29 13:29 125 3 gusting 8 25.6
2015-Jun-29 13:24 101 5 gusting 8 25.6
2015-Jun-29 13:19 076 3 gusting 6 25.6
2015-Jun-29 13:14 096 3 gusting 8 25.6
2015-Jun-29 13:09 077 4 gusting 8 26.1
2015-Jun-29 13:04 102 3 gusting 9 25.6
2015-Jun-29 12:59 150 6 gusting 9 25.6
2015-Jun-29 12:49 041 4 gusting 11 26.1
2015-Jun-29 12:44 063 5 gusting 11 26.1
2015-Jun-29 12:34 057 7 gusting 13 26.1
2015-Jun-29 12:24 054 5 gusting 13 26.1
2015-Jun-29 12:14 055 7 gusting 12 26.1
2015-Jun-29 12:04 073 6 gusting 13 26.1
2015-Jun-29 11:59 059 6 gusting 13 26.1
2015-Jun-29 11:54 067 8 gusting 13 26.1
2015-Jun-29 11:49 052 8 gusting 15 26.7
2015-Jun-29 11:44 072 9 gusting 15 26.1
2015-Jun-29 11:39 043 8 gusting 13 26.1
2015-Jun-29 11:29 046 7 gusting 15 26.1
2015-Jun-29 11:19 027 7 gusting 13 26.7
2015-Jun-29 11:09 045 9 gusting 15 26.7
2015-Jun-29 11:04 072 9 gusting 15 26.7
2015-Jun-29 10:59 069 10 gusting 15 26.7
2015-Jun-29 10:49 063 9 gusting 13 26.1
2015-Jun-29 10:39 062 8 gusting 13 26.7
2015-Jun-29 10:29 055 7 gusting 12 26.7
2015-Jun-29 10:24 055 8 gusting 15 26.7
2015-Jun-29 10:19 067 8 gusting 15 26.1
2015-Jun-29 10:14 067 7 gusting 13 26.7
2015-Jun-29 10:09 059 8 gusting 13 26.1
2015-Jun-29 10:04 049 9 gusting 13 26.1
2015-Jun-29 09:59 075 9 gusting 13 26.1
2015-Jun-29 09:54 080 9 gusting 13 26.1
2015-Jun-29 09:49 063 6 gusting 13 26.1
2015-Jun-29 09:44 073 8 gusting 13 26.1
2015-Jun-29 09:39 050 8 gusting 12 26.1
2015-Jun-29 09:34 042 6 gusting 13 26.7
2015-Jun-29 09:29 029 7 gusting 13 26.7
2015-Jun-29 09:24 050 5 gusting 10 26.7
2015-Jun-29 09:19 073 6 gusting 12 26.1
2015-Jun-29 09:14 053 7 gusting 12 26.1
2015-Jun-29 09:09 085 6 gusting 11 26.7
2015-Jun-29 09:04 336 6 gusting 11 26.7
2015-Jun-29 08:59 045 7 gusting 11 26.1
2015-Jun-29 08:54 046 6 gusting 10 26.1
2015-Jun-29 08:49 059 6 gusting 9 26.1
2015-Jun-29 08:44 009 5 gusting 11 26.1
2015-Jun-29 08:39 028 7 gusting 11 26.1
2015-Jun-29 08:34 026 6 gusting 10 26.1
2015-Jun-29 08:29 054 7 gusting 9 26.1
2015-Jun-29 08:24 005 6 gusting 10 26.1
2015-Jun-29 08:19 056 5 gusting 10 26.1
2015-Jun-29 08:14 036 6 gusting 10 26.1
2015-Jun-29 08:09 029 6 gusting 10 26.1
2015-Jun-29 08:04 053 6 gusting 9 26.1
2015-Jun-29 07:59 049 5 gusting 9 25.6
2015-Jun-29 07:54 055 6 gusting 9 25.6
2015-Jun-29 07:49 059 6 gusting 9 25.6
2015-Jun-29 07:44 048 6 gusting 9 25.6
2015-Jun-29 07:39 081 6 gusting 9 25.6
2015-Jun-29 07:34 060 5 gusting 7 25.6
2015-Jun-29 07:29 055 5 gusting 7 25.6
2015-Jun-29 07:24 076 5 gusting 7 26.1
2015-Jun-29 07:19 053 5 gusting 6 25.6
2015-Jun-29 07:14 051 3 gusting 6 25.6
2015-Jun-29 07:09 048 4 gusting 6 25.0
2015-Jun-29 07:04 044 4 gusting 6 25.0
2015-Jun-29 06:59 097 0 gusting 3 24.4
2015-Jun-29 06:54 173 23.9
2015-Jun-29 06:49 173 23.9
2015-Jun-29 06:44 173 23.3
2015-Jun-29 06:39 173 22.8
2015-Jun-29 06:34 173 22.8
2015-Jun-29 06:29 173 22.2
2015-Jun-29 06:24 173 22.2
2015-Jun-29 06:19 173 21.7
2015-Jun-29 06:14 173 0 gusting 3 21.1
2015-Jun-29 06:09 173 21.1
2015-Jun-29 06:04 173 20.6
2015-Jun-29 05:59 173 0 gusting 4 20.6
2015-Jun-29 05:54 173 1 gusting 4 20.0
2015-Jun-29 05:49 186 20.0
2015-Jun-29 05:44 187 1 gusting 3 19.4
2015-Jun-29 05:39 187 19.4
2015-Jun-29 05:34 187 1 gusting 4 18.9
2015-Jun-29 05:29 193 1 gusting 3 18.9
2015-Jun-29 05:24 201 0 gusting 3 18.9
2015-Jun-29 05:19 207 18.3
2015-Jun-29 05:14 207 0 gusting 4 18.3
2015-Jun-29 05:09 207 1 gusting 4 18.3
2015-Jun-29 05:04 174 1 gusting 4 17.8
2015-Jun-29 04:59 174 1 gusting 4 17.8
2015-Jun-29 04:54 174 2 gusting 4 17.8
2015-Jun-29 04:49 161 0 gusting 5 17.2
2015-Jun-29 04:44 161 2 gusting 4 17.2
2015-Jun-29 04:39 159 0 gusting 4 17.2
2015-Jun-29 04:34 160 1 gusting 4 17.2
2015-Jun-29 04:29 163 0 gusting 5 17.2
2015-Jun-29 04:24 163 1 gusting 5 16.7
2015-Jun-29 04:19 163 3 gusting 4 16.7
2015-Jun-29 04:14 163 2 gusting 5 16.7
2015-Jun-29 04:09 163 3 gusting 5 16.7
2015-Jun-29 04:04 186 4 gusting 5 16.7
2015-Jun-29 03:59 184 3 gusting 5 16.7
2015-Jun-29 03:54 171 4 gusting 5 16.7
2015-Jun-29 03:49 168 3 gusting 5 16.7
2015-Jun-29 03:44 155 2 gusting 6 16.7
2015-Jun-29 03:39 163 3 gusting 6 16.7
2015-Jun-29 03:34 163 3 gusting 6 16.7
2015-Jun-29 03:29 165 4 gusting 6 16.7
2015-Jun-29 03:24 181 3 gusting 5 16.7
2015-Jun-29 03:19 186 4 gusting 5 17.2
2015-Jun-29 03:14 182 3 gusting 5 17.2
2015-Jun-29 03:09 173 3 gusting 5 17.2
2015-Jun-29 03:04 167 3 gusting 5 17.2
2015-Jun-29 02:59 168 3 gusting 5 17.2
2015-Jun-29 02:54 168 3 gusting 5 17.2
2015-Jun-29 02:49 180 3 gusting 5 17.2
2015-Jun-29 02:44 175 4 gusting 5 17.2
2015-Jun-29 02:39 160 3 gusting 5 17.2
2015-Jun-29 02:34 159 4 gusting 5 17.8
2015-Jun-29 02:29 172 2 gusting 5 17.8
2015-Jun-29 02:24 198 3 gusting 5 17.8
2015-Jun-29 02:19 173 2 gusting 4 17.8
2015-Jun-29 02:14 158 1 gusting 5 17.8
2015-Jun-29 02:09 148 1 gusting 5 17.8
2015-Jun-29 02:04 161 0 gusting 4 17.8
2015-Jun-29 01:59 161 2 gusting 4 18.3
2015-Jun-29 01:54 161 0 gusting 3 18.3
2015-Jun-29 01:49 161 18.3
2015-Jun-29 01:44 161 3 gusting 4 18.3
2015-Jun-29 01:39 161 1 gusting 4 18.3
2015-Jun-29 01:34 161 2 gusting 4 18.3
2015-Jun-29 01:29 161 3 gusting 4 18.3
2015-Jun-29 01:24 161 2 gusting 5 18.3
2015-Jun-29 01:19 175 3 gusting 5 18.3
2015-Jun-29 01:14 167 3 gusting 4 18.3
2015-Jun-29 01:09 167 1 gusting 3 18.3
2015-Jun-29 01:04 167 18.3
2015-Jun-29 00:59 167 18.3
2015-Jun-29 00:54 167 18.3
2015-Jun-29 00:49 167 1 gusting 4 18.3
2015-Jun-29 00:44 167 3 gusting 4 18.3
2015-Jun-29 00:39 167 3 gusting 4 18.9
2015-Jun-29 00:34 194 2 gusting 5 18.9
2015-Jun-29 00:29 149 3 gusting 5 18.9
2015-Jun-29 00:24 158 2 gusting 5 18.9
2015-Jun-29 00:19 144 0 gusting 6 18.9
2015-Jun-29 00:14 127 4 gusting 5 18.9
2015-Jun-29 00:09 157 2 gusting 6 18.9
2015-Jun-29 00:04 140 3 gusting 6 18.9
2015-Jun-28 23:59 164 2 gusting 5 18.9
2015-Jun-28 23:54 171 3 gusting 5 18.9
2015-Jun-28 23:49 163 4 gusting 4 18.9
2015-Jun-28 23:44 163 3 gusting 4 18.9
2015-Jun-28 23:39 163 2 gusting 4 18.9
2015-Jun-28 23:34 163 2 gusting 4 18.9
2015-Jun-28 23:29 163 2 gusting 4 18.9
2015-Jun-28 23:24 175 1 gusting 4 18.9
2015-Jun-28 23:19 175 2 gusting 6 18.9
2015-Jun-28 23:14 172 4 gusting 6 19.4
2015-Jun-28 23:09 170 3 gusting 5 19.4
2015-Jun-28 23:04 140 4 gusting 6 19.4
2015-Jun-28 22:59 120 3 gusting 5 19.4
2015-Jun-28 22:54 134 3 gusting 5 19.4
2015-Jun-28 22:49 132 2 gusting 5 19.4
2015-Jun-28 22:44 139 4 gusting 5 19.4
2015-Jun-28 22:39 130 3 gusting 5 19.4
2015-Jun-28 22:34 157 2 gusting 4 19.4
2015-Jun-28 22:29 167 1 gusting 4 19.4
2015-Jun-28 22:24 142 1 gusting 4 20.0
2015-Jun-28 22:19 144 1 gusting 5 20.0
2015-Jun-28 22:14 147 2 gusting 5 20.0
2015-Jun-28 22:09 163 2 gusting 4 20.0
2015-Jun-28 22:04 164 2 gusting 5 20.0
2015-Jun-28 21:59 164 1 gusting 4 20.0
2015-Jun-28 21:54 164 2 gusting 4 20.0
2015-Jun-28 21:49 164 1 gusting 4 20.6
2015-Jun-28 21:44 164 1 gusting 4 20.6
2015-Jun-28 21:39 164 2 gusting 4 20.6
2015-Jun-28 21:34 164 2 gusting 4 20.6
2015-Jun-28 21:29 176 3 gusting 5 20.6
2015-Jun-28 21:24 150 3 gusting 5 21.1
2015-Jun-28 21:19 169 2 gusting 4 21.1
2015-Jun-28 21:14 157 1 gusting 4 21.1
2015-Jun-28 21:09 157 21.1
2015-Jun-28 21:04 159 1 gusting 4 21.7
2015-Jun-28 20:59 136 1 gusting 4 21.7
2015-Jun-28 20:54 143 1 gusting 4 21.7
2015-Jun-28 20:49 143 2 gusting 5 22.2
2015-Jun-28 20:44 143 2 gusting 5 22.2
2015-Jun-28 20:39 143 1 gusting 5 22.2
2015-Jun-28 20:34 143 1 gusting 4 22.8
2015-Jun-28 20:29 143 1 gusting 4 22.8
2015-Jun-28 20:24 143 1 gusting 4 22.8
2015-Jun-28 20:19 143 2 gusting 5 22.8
2015-Jun-28 20:14 143 3 gusting 5 22.8
2015-Jun-28 20:09 157 1 gusting 4 22.8
2015-Jun-28 20:04 157 2 gusting 3 23.3
2015-Jun-28 19:59 157 2 gusting 3 23.3
2015-Jun-28 19:54 157 23.3
2015-Jun-28 19:49 157 23.3
2015-Jun-28 19:44 157 23.3
2015-Jun-28 19:39 157 23.9
2015-Jun-28 19:34 157 0 gusting 4 23.9
2015-Jun-28 19:29 157 1 gusting 4 23.9
2015-Jun-28 19:24 183 2 gusting 5 24.4
2015-Jun-28 19:19 202 3 gusting 5 24.4
2015-Jun-28 19:14 207 3 gusting 4 24.4
2015-Jun-28 19:09 172 2 gusting 4 25.0
2015-Jun-28 19:04 166 0 gusting 5 25.0
2015-Jun-28 18:59 166 0 gusting 5 25.0
2015-Jun-28 18:54 166 2 gusting 4 25.6
2015-Jun-28 18:49 161 25.6
2015-Jun-28 18:44 161 26.1
2015-Jun-28 18:39 163 1 gusting 4 26.1
2015-Jun-28 18:34 171 1 gusting 5 26.1
2015-Jun-28 18:29 171 3 gusting 5 26.1
2015-Jun-28 18:24 173 2 gusting 4 26.1
2015-Jun-28 18:19 131 26.7
2015-Jun-28 18:14 123 2 gusting 5 26.7
2015-Jun-28 18:09 105 2 gusting 6 26.7
2015-Jun-28 18:04 119 4 gusting 6 26.7
2015-Jun-28 17:59 153 5 gusting 6 26.7
2015-Jun-28 17:54 118 5 gusting 6 26.7
2015-Jun-28 17:49 099 0 gusting 6 26.7
2015-Jun-28 17:44 109 3 gusting 9 27.2
2015-Jun-28 17:39 132 4 gusting 9 27.2
2015-Jun-28 17:34 110 5 gusting 7 27.2
2015-Jun-28 17:29 163 4 gusting 7 27.2
2015-Jun-28 17:24 162 2 gusting 8 27.2
2015-Jun-28 17:19 148 5 gusting 8 27.2
2015-Jun-28 17:14 116 4 gusting 6 27.2
2015-Jun-28 17:09 159 4 gusting 6 27.8
2015-Jun-28 17:04 105 1 gusting 8 27.8
2015-Jun-28 16:59 103 5 gusting 8 27.8
2015-Jun-28 16:54 133 3 gusting 7 27.8
2015-Jun-28 16:49 088 4 gusting 8 27.8
2015-Jun-28 16:44 119 6 gusting 8 27.8
2015-Jun-28 16:39 130 6 gusting 8 28.3
2015-Jun-28 16:34 125 6 gusting 9 28.3
2015-Jun-28 16:29 113 5 gusting 9 28.3
2015-Jun-28 16:24 161 4 gusting 7 28.3
2015-Jun-28 16:19 126 3 gusting 9 28.3
2015-Jun-28 16:14 096 5 gusting 9 28.3
2015-Jun-28 16:09 070 4 gusting 7 28.3
2015-Jun-28 16:04 069 4 gusting 7 28.3
2015-Jun-28 15:59 104 5 gusting 7 28.3
2015-Jun-28 15:54 123 0 gusting 6 28.3
2015-Jun-28 15:49 054 2 gusting 6 27.8
2015-Jun-28 15:44 076 3 gusting 7 27.8
2015-Jun-28 15:39 075 1 gusting 7 27.2
2015-Jun-28 15:34 036 4 gusting 9 27.2
2015-Jun-28 15:29 077 6 gusting 10 27.2
2015-Jun-28 15:24 046 6 gusting 10 27.2
2015-Jun-28 15:19 061 7 gusting 11 27.2
2015-Jun-28 15:14 018 6 gusting 11 27.2
2015-Jun-28 15:09 051 5 gusting 11 26.7
2015-Jun-28 15:04 023 6 gusting 10 26.7
2015-Jun-28 14:59 049 6 gusting 10 27.2
2015-Jun-28 14:54 044 6 gusting 10 27.2
2015-Jun-28 14:49 047 7 gusting 11 27.2
2015-Jun-28 14:44 097 7 gusting 11 27.2
2015-Jun-28 14:39 024 6 gusting 11 27.2
2015-Jun-28 14:34 041 6 gusting 11 27.2
2015-Jun-28 14:29 059 6 gusting 10 27.2
2015-Jun-28 14:24 036 6 gusting 10 26.7
2015-Jun-28 14:19 047 6 gusting 10 26.7
2015-Jun-28 14:14 052 7 gusting 11 27.2
2015-Jun-28 14:09 042 7 gusting 12 26.7
2015-Jun-28 14:04 034 7 gusting 12 27.2
2015-Jun-28 13:59 019 6 gusting 11 27.2
2015-Jun-28 13:54 063 6 gusting 9 27.2
2015-Jun-28 13:49 039 6 gusting 9 27.2
2015-Jun-28 13:44 021 7 gusting 10 26.7
2015-Jun-28 13:39 053 6 gusting 10 27.2
2015-Jun-28 13:34 045 5 gusting 10 27.2
2015-Jun-28 13:29 049 5 gusting 10 27.2
2015-Jun-28 13:24 032 5 gusting 11 27.2
2015-Jun-28 13:19 032 8 gusting 11 27.2
2015-Jun-28 13:14 041 8 gusting 11 27.2
2015-Jun-28 13:09 016 6 gusting 9 27.8
2015-Jun-28 13:04 018 6 gusting 11 27.8
2015-Jun-28 12:59 067 6 gusting 11 27.2
2015-Jun-28 12:54 029 6 gusting 11 27.2
2015-Jun-28 12:49 011 7 gusting 11 27.2
2015-Jun-28 12:44 052 7 gusting 11 27.2
2015-Jun-28 12:39 030 7 gusting 11 27.2
2015-Jun-28 12:34 074 7 gusting 11 27.2
2015-Jun-28 12:29 029 8 gusting 11 27.2
2015-Jun-28 12:24 011 6 gusting 12 27.2
2015-Jun-28 12:19 041 7 gusting 11 27.2
2015-Jun-28 12:14 009 6 gusting 9 27.2
2015-Jun-28 12:09 033 7 gusting 9 27.2
2015-Jun-28 12:04 069 4 gusting 9 27.2
2015-Jun-28 11:59 005 6 gusting 10 27.2
2015-Jun-28 11:54 058 6 gusting 10 27.2
2015-Jun-28 11:49 035 5 gusting 10 27.2
2015-Jun-28 11:44 022 6 gusting 10 27.2
2015-Jun-28 11:39 018 6 gusting 10 27.2
2015-Jun-28 11:34 344 6 gusting 9 27.2
2015-Jun-28 11:29 009 5 gusting 8 27.2
2015-Jun-28 11:24 348 5 gusting 10 27.2
2015-Jun-28 11:19 014 6 gusting 10 27.2
2015-Jun-28 11:14 011 6 gusting 10 27.2
2015-Jun-28 11:09 056 6 gusting 10 27.2
2015-Jun-28 11:04 051 6 gusting 9 27.2
2015-Jun-28 10:59 005 6 gusting 9 27.2
2015-Jun-28 10:54 344 6 gusting 9 27.2
2015-Jun-28 10:49 343 7 gusting 11 27.2
2015-Jun-28 10:44 343 5 gusting 10 27.2
2015-Jun-28 10:39 360 6 gusting 10 26.7
2015-Jun-28 10:34 347 6 gusting 10 26.7
2015-Jun-28 10:29 011 6 gusting 9 26.7
2015-Jun-28 10:24 351 6 gusting 9 26.1
2015-Jun-28 10:19 028 6 gusting 8 26.7
2015-Jun-28 10:14 344 6 gusting 8 26.1
2015-Jun-28 10:09 017 6 gusting 9 26.1
2015-Jun-28 10:04 009 7 gusting 9 26.7
2015-Jun-28 09:59 009 6 gusting 9 26.7
2015-Jun-28 09:54 355 6 gusting 9 26.7
2015-Jun-28 09:49 342 6 gusting 9 26.1
2015-Jun-28 09:44 005 6 gusting 8 26.1
2015-Jun-28 09:39 005 6 gusting 8 26.1
2015-Jun-28 09:34 017 6 gusting 8 26.7
2015-Jun-28 09:29 355 5 gusting 8 26.1
2015-Jun-28 09:24 341 4 gusting 7 26.1
2015-Jun-28 09:19 005 5 gusting 8 26.1
2015-Jun-28 09:14 345 6 gusting 8 26.1
2015-Jun-28 09:09 355 5 gusting 7 26.1
2015-Jun-28 09:04 355 5 gusting 7 26.1
2015-Jun-28 08:59 025 6 gusting 8 26.1
2015-Jun-28 08:54 015 5 gusting 8 25.6
2015-Jun-28 08:49 026 5 gusting 8 25.6
2015-Jun-28 08:44 019 6 gusting 8 25.6
2015-Jun-28 08:39 005 5 gusting 7 25.6
2015-Jun-28 08:34 346 4 gusting 8 25.6
2015-Jun-28 08:29 355 4 gusting 8 25.6
2015-Jun-28 08:24 360 3 gusting 6 26.1
2015-Jun-28 08:19 026 4 gusting 6 25.6
2015-Jun-28 08:14 030 4 gusting 6 25.6
2015-Jun-28 08:09 026 4 gusting 7 25.0
2015-Jun-28 08:04 339 6 gusting 8 25.0